Flag for U.S.A. Weather past 2 weeks in Flagstaff, Arizona, U.S.A.

Now
46 °F

Partly sunny.


Feels Like: 41 °F
Forecast: 32 / 57 °F
Wind: 9 mph from Southwest

Location: Flagstaff Pulliam Airport

Current Time: May 22, 2015 at 9:08:08 AM

Latest Report: May 22, 2015 at 7:57 AM


Visibility: 10 mi

Pressure: 29.85 "Hg

Humidity: 66%

Dew point: 35 °F

Location of FlagstaffLocation

Historic Weather in Flagstaff — Graph

°F

Flagstaff temperature yesterday

Maximum temperature yesterday: 60 °F (at 2:57 PM)
Minimum temperature yesterday: 36 °F (at 11:57 PM)
Average temperature yesterday: 49 °F

Past Weeks' High & Low Weather Summary

 TemperatureHumidityPressure
High66 °F (May 11, 4:57 PM)100% (May 8, 10:01 PM)30.13 "Hg (May 8, 10:01 PM)
Low27 °F (May 19, 4:57 AM)19% (May 11, 5:57 PM)29.67 "Hg (May 8, 2:57 AM)
Average44 °F64%29.90 "Hg
* Reported May 7 7:57 AM — May 22 7:57 AM, Flagstaff, Weather by CustomWeather, © 2015

Note: Actual official high and low records may vary slightly from our data, if they occured in-between our weather recording intervals... More about our weather records

Advertising

Flagstaff weather history for previous 24 hours

 ConditionsComfort  
Time TempWeatherWind HumidityBarometerVisibility
7:57 AM
Fri, May 22
46 °FPartly sunny.9 mph66%29.85 "Hg10 mi
6:57 AM41 °FCloudy.No wind74%29.86 "Hg10 mi
5:57 AM32 °FPartly sunny.No wind85%29.87 "Hg10 mi
4:57 AM31 °FPassing clouds.No wind85%29.87 "Hg10 mi
3:57 AM33 °FClear.No wind82%29.86 "Hg10 mi
2:57 AM31 °FClear.No wind82%29.87 "Hg10 mi
1:57 AM31 °FClear.No wind85%29.88 "Hg10 mi
12:57 AM34 °FClear.3 mph76%29.87 "Hg10 mi
11:57 PM
Thu, May 21
36 °FClear.No wind73%29.87 "Hg10 mi
10:57 PM40 °FClear.No wind63%29.84 "Hg10 mi
9:57 PM41 °FClear.3 mph58%29.84 "Hg10 mi
8:57 PM44 °FClear.No wind53%29.83 "Hg10 mi
7:57 PM49 °FClear.5 mph41%29.80 "Hg10 mi
6:57 PM54 °FSunny.15 mph27%29.80 "Hg10 mi
5:57 PM57 °FSunny.16 mph22%29.82 "Hg10 mi
4:57 PM58 °FSunny.22 mph22%29.81 "Hg10 mi
3:57 PM60 °FSunny.22 mph26%29.80 "Hg10 mi
2:57 PM60 °FSunny.18 mph26%29.80 "Hg10 mi
1:57 PM59 °FSunny.18 mph32%29.80 "Hg10 mi
12:57 PM59 °FSunny.10 mph31%29.84 "Hg10 mi
11:57 AM58 °FSunny.10 mph32%29.86 "Hg10 mi
10:57 AM58 °FSunny.16 mph31%29.87 "Hg10 mi
9:57 AM56 °FPassing clouds.14 mph32%29.87 "Hg10 mi
Weather by CustomWeather, © 2015

See weather overviewHow to use our weather pages